x

St. Joseph, Mi (sjom4) Weather Station

11:00am - Mon 16th Jan 2017 All times are CST. -6 hours from GMT.

  • Wind
  • Air Temp 35°f
  • Sea Pressure 1024.4mb
  • St. Joseph, Mi
  • St. Joseph, Mi

More Historic Weather Station data

Upgrade to MSW Pro to gain access to the past 30 days of data for over 8000 Wavebouys and Weather Stations around the globe.

Join Pro

Comparision Forecast

View Surf forecast
   
Mon 01/16 11:00am  -  3 mph 1024.4mb 35f
10:50am  -  3 mph 1023.7mb 35f
10:40am 2 5 mph 1024mb 35f
10:30am  -  5 mph 1024.7mb 35f
10:20am 2 6 mph 1025.1mb 35f
10:10am 1 6 mph 1024.7mb 34f
10:00am  -  3 mph 1024.7mb 34f
9:50am 1 3 mph 1025.4mb 34f
9:40am 2 6 mph 1026.1mb 33f
9:30am 3 7 mph 1025.1mb 33f
9:20am 2 7 mph 1024.4mb 33f
9:10am 2 5 mph 1025.4mb 33f
9:00am 2 5 mph 1026.1mb 33f
8:50am 2 5 mph 1026.1mb 32f
8:40am 2 6 mph 1025.7mb 32f
8:30am 1 6 mph 1025.4mb 32f
8:20am 2 3 mph 1025.7mb 32f
8:10am 2 5 mph 1026.4mb 32f
8:00am 2 5 mph 1026.1mb 32f
7:50am 2 5 mph 1025.7mb 32f
7:40am 3 5 mph 1025.1mb 32f
7:30am  -  5 mph 1025.4mb 32f
7:20am 2 5 mph 1025.7mb 31f
7:10am 1 5 mph 1025.7mb 31f
7:00am 2 5 mph 1025.1mb 31f
6:50am 1 3 mph 1025.4mb 31f
6:40am  -  3 mph 1026.1mb 31f
6:30am 1 3 mph 1026.1mb 31f
6:20am  -  2 mph 1025.7mb 31f
6:10am  -  2 mph 1025.4mb 31f
6:00am 1 3 mph 1026.1mb 31f
5:50am  -  1 mph 1026.4mb 31f
5:40am  -  3 mph 1026.1mb 31f
5:30am  -  2 mph 1025.7mb 31f
5:20am  -  3 mph 1026.1mb 31f
5:10am  -  1 mph 1026.4mb 31f
5:00am  -  1 mph 1026.4mb 31f
4:50am  -  2 mph 1026.4mb 31f
4:40am  -  2 mph 1026.1mb 31f
4:30am  -  3 mph 1025.7mb 31f
4:20am  -  2 mph 1026.1mb 31f
4:10am  -  2 mph 1026.1mb 31f
4:00am  -  3 mph 1026.1mb 31f
3:50am  -  3 mph 1026.1mb 31f
3:40am  -  3 mph 1025.4mb 31f
3:30am  -  2 mph 1025.4mb 31f
3:20am  -  2 mph 1026.1mb 30f
3:10am  -  2 mph 1026.4mb 30f
3:00am  -  2 mph 1026.4mb 30f
2:50am  -  5 mph 1026.4mb 30f
2:40am 1 3 mph 1026.1mb 30f
2:30am 1 2 mph 1026.1mb 30f
2:20am  -  2 mph 1026.1mb 29f
2:10am  -  1 mph 1026.4mb 29f
2:00am  -  2 mph 1026.4mb 29f
1:50am 2 3 mph 1026.8mb 29f
1:40am  -  1 mph 1026.8mb 29f
1:30am  -  2 mph 1026.4mb 29f
1:20am  -  1 mph 1026.1mb 29f
1:10am  -  2 mph 1025.7mb 29f
1:00am  -  1 mph 1026.8mb 29f
12:50am  -  3 mph 1026.8mb 29f
12:40am  -  1 mph 1027.1mb 29f
12:30am  -  2 mph 1027.1mb 29f
12:20am  -  2 mph 1026.4mb 29f
12:10am  -  mph 1026.1mb 29f
12:00am  -  1 mph 1026.1mb 29f
Sun 01/15 11:50pm  -  1 mph 1026.1mb 29f
11:40pm  -  1 mph 1027.1mb 29f
11:30pm  -  1 mph 1027.1mb 29f
11:20pm  -  3 mph 1027.1mb 29f
11:10pm  -  3 mph 1026.8mb 30f
11:00pm 2 5 mph 1026.8mb 30f
10:50pm 2 3 mph 1027.4mb 30f
10:40pm 1 2 mph 1027.8mb 30f
10:30pm 1 3 mph 1027.8mb 30f
10:20pm 1 3 mph 1027.1mb 30f
10:10pm 1 5 mph 1026.8mb 30f
10:00pm 2 5 mph 1027.1mb 30f
9:50pm 2 3 mph 1027.1mb 30f
9:40pm 3 5 mph 1028.1mb 31f
9:30pm 2 5 mph 1027.8mb 31f
9:20pm 1 5 mph 1027.4mb 31f
9:10pm  -  2 mph 1027.1mb 31f
9:00pm  -  3 mph 1028.1mb 31f
8:50pm 2 3 mph 1028.1mb 31f
8:40pm  -  2 mph 1027.8mb 31f
8:30pm  -  2 mph 1027.4mb 31f
8:20pm  -  2 mph 1027.4mb 31f
8:10pm  -  3 mph 1027.8mb 31f
8:00pm 2 3 mph 1028.1mb 31f
7:50pm 2 3 mph 1028.4mb 32f
7:40pm 2 3 mph 1027.8mb 32f
7:30pm 2 3 mph 1027.4mb 31f
7:20pm 1 3 mph 1027.1mb 32f
7:10pm 2 3 mph 1027.4mb 32f
7:00pm 1 2 mph 1028.1mb 31f
6:50pm 1 2 mph 1028.4mb 31f
6:40pm 1
mph
1028.1mb 31f
6:30pm  -  2 mph 1027.4mb 31f
6:20pm  -  2 mph 1027.8mb 31f
6:10pm  -  1 mph 1028.1mb 31f
11:00am 10 11 mph 1030.8mb 32f
10:50am 7 9 mph 1030.8mb 32f
10:40am 7 8 mph 1031.2mb 32f
10:30am 5 8 mph 1031.2mb 32f
10:20am 5 6 mph 1030.5mb 31f
10:10am 3 5 mph 1030.5mb 31f
10:00am 2 5 mph 1030.5mb 31f
9:50am 2 5 mph 1030.8mb 31f
9:40am 2 6 mph 1031.5mb 30f
9:30am 2 5 mph 1031.2mb 29f
9:20am 2 6 mph 1031.2mb 29f
9:10am 3 7 mph 1030.8mb 28f
9:00am 3 6 mph 1030.8mb 28f
8:50am 3 6 mph 1030.5mb 26f
8:40am 5 6 mph 1030.5mb 26f
8:30am 5 7 mph 1030.1mb 26f
8:20am 3 5 mph 1030.1mb 25f
8:00am 3 5 mph 1030.5mb 24f
7:50am 3 5 mph 1030.5mb 24f
7:40am 3 6 mph 1030.5mb 24f
7:30am 5 6 mph 1030.5mb 24f
7:20am 5 7 mph 1030.5mb 24f
7:10am 5 7 mph 1030.5mb 24f
7:00am 5 7 mph 1030.1mb 23f
6:50am 3 6 mph 1030.5mb 23f
6:40am 3 5 mph 1030.5mb 23f
6:30am 3 6 mph 1030.5mb 23f
6:20am 3
mph
1030.1mb 23f
6:10am 3
mph
1030.5mb 23f
6:00am 2 3 mph 1030.5mb 23f
5:50am 2 3 mph 1030.5mb 23f
5:40am 3
mph
1030.8mb 23f
5:30am 3
mph
1030.5mb 23f
5:20am 3 5 mph 1030.5mb 23f
5:10am 2 3 mph 1030.5mb 23f
5:00am 1 2 mph 1030.5mb 23f
4:50am 2 3 mph 1030.5mb 23f
4:40am 2
mph
1030.8mb 24f
4:30am 1 2 mph 1030.8mb 25f
4:20am 1 2 mph 1030.8mb 23f
4:10am 2
mph
1030.8mb 23f
4:00am 2 3 mph 1030.8mb 24f
3:50am 2 3 mph 1031.2mb 23f
3:40am 2 3 mph 1030.8mb 23f
3:30am 2 3 mph 1030.8mb 23f
3:20am 1 2 mph 1030.5mb 24f
3:10am 1 2 mph 1030.1mb 25f
3:00am 1 2 mph 1030.5mb 25f
2:40am 1 6 mph 1031.2mb 27f
2:30am 6 7 mph 1031.2mb 32f
2:20am 5 7 mph 1030.5mb 32f
2:10am 5 6 mph 1030.5mb 32f
2:00am 3 5 mph 1030.8mb 32f
1:50am 3 6 mph 1031.2mb 32f
1:40am 5 6 mph 1030.8mb 32f
1:30am 5 6 mph 1030.5mb 32f
1:20am 5 7 mph 1030.5mb 32f
1:10am 5 7 mph 1030.5mb 32f
1:00am 5 6 mph 1030.8mb 31f
12:50am 3 6 mph 1031.2mb 29f
12:40am 3 5 mph 1030.8mb 29f
12:30am 3 6 mph 1030.5mb 32f
12:20am 5
mph
1030.5mb 32f
12:10am 5 6 mph 1030.8mb 32f
12:00am 3 5 mph 1030.8mb 32f
Sat 01/14 11:50pm 3 5 mph 1030.8mb 32f
11:40pm 3 5 mph 1030.1mb 31f
11:30pm 3 7 mph 1030.1mb 32f
11:20pm 3 5 mph 1030.5mb 31f
11:10pm 3
mph
1030.8mb 31f
11:00pm 3 5 mph 1031.2mb 31f
10:50pm 2 3 mph 1031.2mb 31f
10:40pm 3 5 mph 1030.8mb 31f
10:30pm 3 6 mph 1030.5mb 32f
10:20pm 3 5 mph 1031.2mb 32f
10:10pm 5 6 mph 1031.2mb 32f
10:00pm 6 7 mph 1031.2mb 32f
9:50pm 6 7 mph 1030.5mb 32f
9:40pm 5 7 mph 1030.8mb 32f
9:20pm 5 6 mph 1031.5mb 32f
9:10pm 5 7 mph 1030.8mb 32f
9:00pm 6 7 mph 1030.8mb 32f
8:50pm 6 7 mph 1031.5mb 32f
8:40pm 6 8 mph 1031.8mb 32f
8:30pm 6 7 mph 1031.5mb 32f
8:20pm 5 7 mph 1030.8mb 32f
8:10pm 6 7 mph 1030.8mb 32f
8:00pm 6 7 mph 1031.5mb 32f
7:50pm 6 7 mph 1031.8mb 32f
7:40pm 5 7 mph 1031.2mb 32f
7:30pm 5 7 mph 1030.8mb 32f
7:20pm 5 6 mph 1030.8mb 32f
7:10pm 5 6 mph 1031.2mb 32f
7:00pm 3 6 mph 1031.2mb 32f
6:50pm 5 7 mph 1031.2mb 32f
6:40pm 3 6 mph 1030.5mb 32f
6:30pm 3 6 mph 1030.5mb 32f
6:20pm 5 7 mph 1031.2mb 32f
6:10pm 5 7 mph 1031.2mb 32f
6:00pm 5 7 mph 1031.2mb 31f
5:50pm 6 7 mph 1030.8mb 31f
5:40pm 5 7 mph 1030.1mb 31f
5:30pm 5 7 mph 1030.1mb 31f
5:20pm 6 8 mph 1030.5mb 31f
5:10pm 5 7 mph 1030.5mb 31f
5:00pm 7 8 mph 1029.8mb 31f
4:50pm 7 8 mph 1030.8mb 31f
4:40pm 6 8 mph 1030.8mb 32f
4:30pm 7 9 mph 1030.1mb 32f
4:20pm 7 9 mph 1030.5mb 32f
4:10pm 7 8 mph 1030.5mb 32f
4:00pm 6 9 mph 1030.1mb 32f
3:50pm 6 8 mph 1030.8mb 32f
3:40pm 8 10 mph 1030.5mb 32f
3:30pm 7 8 mph 1030.5mb 33f
3:20pm 6 8 mph 1030.5mb 32f
3:10pm 7
mph
1030.5mb 32f
3:00pm 6 8 mph 1029.8mb 32f
2:50pm 5 7 mph 1030.8mb 32f
2:40pm 6 7 mph 1030.8mb 32f
2:30pm 6 8 mph 1030.1mb 32f
2:20pm 5 7 mph 1030.1mb 32f
2:10pm 6 7 mph 1030.8mb 32f
2:00pm 5 6 mph 1030.8mb 32f
1:50pm 1 3 mph 1030.1mb 31f
1:40pm 2 3 mph 1030.8mb 31f
1:30pm 2 3 mph 1030.8mb 31f
1:20pm 2 5 mph 1030.5mb 31f
1:10pm 3
mph
1030.8mb 30f
1:00pm 2 5 mph 1031.2mb 30f
12:50pm 3 5 mph 1030.5mb 30f
12:40pm 3 5 mph 1030.8mb 30f
12:30pm 3 5 mph 1031.5mb 30f
12:20pm 2 3 mph 1030.8mb 30f
12:10pm 2 3 mph 1030.8mb 31f
12:00pm 2 5 mph 1031.2mb 31f
11:50am 3
mph
1031.8mb 30f
11:40am 3 5 mph 1032.2mb 30f
11:30am 3 5 mph 1031.5mb 30f
11:20am 5 6 mph 1031.8mb 30f
11:10am 3 6 mph 1032.5mb 29f
11:00am 3 6 mph 1032.8mb 30f
10:50am 5 6 mph 1032.2mb 30f
10:40am 3 5 mph 1032.2mb 30f
10:30am 5
mph
1033.2mb 30f
10:20am 3 5 mph 1033.2mb 30f
10:10am 2 5 mph 1032.5mb 29f
10:00am 3 6 mph 1032.5mb 29f
9:50am 3 5 mph 1032.5mb 29f
9:40am 1 6 mph 1032.8mb 29f
9:30am 3 5 mph 1032.5mb 29f
9:20am 3 6 mph 1033.2mb 29f
9:10am 1 2 mph 1032.5mb 29f
9:00am 2 5 mph 1032.5mb 28f
8:50am 2 3 mph 1033.2mb 28f
8:40am  -  2 mph 1033.2mb 28f
8:30am 1 3 mph 1033.2mb 28f
8:20am  -  2 mph 1033.2mb 28f
8:10am  -  2 mph 1032.8mb 28f
8:00am  -  2 mph 1032.5mb 27f
7:50am  -  mph 1032.5mb 27f
7:40am  -  2 mph 1032.8mb 27f
7:30am  -  2 mph 1033.5mb 27f
7:20am 1 3 mph 1032.8mb 27f
7:10am  -  1 mph 1033.5mb 27f
7:00am  -  1 mph 1033.5mb 27f
6:50am  -  1 mph 1033.2mb 27f
6:40am  -  3 mph 1033.5mb 27f
6:30am  -  2 mph 1032.8mb 26f
6:20am  -  3 mph 1032.8mb 26f
6:10am 1 2 mph 1033.2mb 26f
6:00am  -  2 mph 1033.9mb 26f
5:50am  -  2 mph 1033.5mb 26f
5:40am 1 3 mph 1034.2mb 26f
5:30am  -  3 mph 1033.5mb 26f
5:20am  -  2 mph 1034.2mb 26f
5:10am 2 5 mph 1033.5mb 26f
5:00am  -  5 mph 1033.5mb 26f
4:50am  -  3 mph 1033.2mb 26f
4:40am  -  3 mph 1033.5mb 26f
4:30am 1 3 mph 1034.5mb 26f
4:20am 1 6 mph 1033.9mb 25f
4:10am  -  5 mph 1034.2mb 25f
4:00am  -  6 mph 1034.2mb 25f
3:50am  -  2 mph 1034.2mb 25f
3:40am 1 7 mph 1034.9mb 25f
3:30am 2 7 mph 1034.2mb 25f
3:20am 2 7 mph 1034.9mb 25f
3:10am 1 6 mph 1034.2mb 25f
3:00am 1 3 mph 1034.5mb 25f
2:50am 2 5 mph 1034.9mb 25f
2:40am 1 5 mph 1035.6mb 25f
2:30am 2 6 mph 1035.9mb 24f
2:20am 3 8 mph 1035.2mb 24f
2:10am 1 6 mph 1035.9mb 24f
2:00am 3 6 mph 1035.6mb 24f
1:50am 2 5 mph 1036.6mb 24f
1:40am 2 6 mph 1036.6mb 24f
1:30am 1 3 mph 1036.9mb 24f
1:20am 1 5 mph 1036.9mb 24f
1:10am 2 5 mph 1036.9mb 24f
1:00am  -  5 mph 1036.9mb 24f
12:50am  -  3 mph 1036.2mb 24f
12:40am 1 5 mph 1037.3mb 24f
12:30am 1 5 mph 1036.9mb 24f
12:20am 2 3 mph 1037.3mb 24f
12:10am 1 3 mph 1036.9mb 24f
12:00am  -  5 mph 1037.9mb 24f
Fri 01/13 11:50pm 2 3 mph 1037.3mb 24f
11:40pm 2 3 mph 1037.6mb 24f
11:30pm  -  2 mph 1037.3mb 24f
11:20pm  -  2 mph 1037.9mb 24f
11:10pm  -  3 mph 1037.6mb 24f
11:00pm 1 2 mph 1037.6mb 24f